EW2360 Weather Reports


time (UTC)temp
C
wind
direction
speed
KPH
gust
KPH
rain 1hr
cm
rain 24hr
cm
rain mn
cm
humidity
%
barometer
mb
20260504204333 29 30 4.8 16.1 0.00 0.00 0.00 67 1011.5
20260504203346 28 52 9.7 20.9 0.00 0.00 0.00 66 1011.6
20260504202332 28 68 4.8 16.1 0.00 0.00 0.00 67 1011.5
20260504201345 28 51 4.8 17.7 0.00 0.00 0.00 67 1011.5
20260504200326 29 52 6.4 14.5 0.00 0.00 0.00 65 1011.7
20260504195337 28 43 6.4 11.3 0.00 0.00 0.00 64 1011.8
20260504194353 29 146 4.8 12.9 0.00 0.00 0.00 64 1011.7
20260504193333 29 25 3.2 14.5 0.00 0.00 0.00 65 1012.0
20260504192344 28 95 4.8 19.3 0.00 0.00 0.00 67 1012.2
20260504191352 28 23 3.2 11.3 0.00 0.00 0.00 65 1012.4
20260504190333 30 68 6.4 14.5 0.00 0.00 0.00 65 1012.6
20260504185343 29 53 3.2 11.3 0.00 0.00 0.00 67 1012.6
20260504184327 28 7 9.7 20.9 0.00 0.00 0.00 69 1012.8
20260504183356 28 58 8.0 17.7 0.00 0.00 0.00 68 1013.0
20260504182327 28 44 9.7 22.5 0.00 0.00 0.00 68 1013.1
20260504181339 27 34 9.7 20.9 0.00 0.00 0.00 68 1013.2
20260504180350 28 153 4.8 17.7 0.00 0.00 0.00 65 1013.3
20260504175333 27 148 4.8 22.5 0.00 0.00 0.00 70 1013.4
20260504174327 28 51 11.3 19.3 0.00 0.00 0.00 66 1013.5
20260504173339 27 77 11.3 24.1 0.00 0.00 0.00 67 1013.7
20260504172333 28 23 9.7 19.3 0.00 0.00 0.00 65 1013.8
20260504171325 27 337 6.4 16.1 0.00 0.00 0.00 67 1014.0
20260504170340 27 23 11.3 20.9 0.00 0.00 0.00 68 1014.2
20260504160343 27 20 6.4 14.5 0.00 0.00 0.00 67 1014.6
20260504150329 25 13 8.0 22.5 0.00 0.00 0.00 72 1014.9
20260504140330 24 35 8.0 20.9 0.00 0.03 0.00 80 1014.6
20260504130340 21 30 8.0 14.5 0.00 0.03 0.00 89 1014.4
20260504110329 18 349 4.8 9.7 0.00 0.03 0.00 95 1013.4
20260504100347 17 360 3.2 9.7 0.00 0.03 0.00 97 1012.9
20260504081338 18 347 1.6 4.8 0.00 0.03 0.00 98 1013.2
20260504080332 18 317 1.6 4.8 0.00 0.03 0.00 98 1013.4
20260504070330 18 307 0.0 0.0 0.00 0.03 0.00 97 1013.1
20260504050328 20 21 1.6 8.0 0.00 0.03 0.00 93 1014.4
20260504045334 20 336 1.6 6.4 0.00 0.03 0.00 94 1014.7
20260504044328 20 345 1.6 4.8 0.00 0.03 0.00 94 1014.5
20260504043341 20 342 1.6 4.8 0.00 0.03 0.00 94 1014.4
20260504042352 20 8 1.6 4.8 0.00 0.03 0.00 94 1014.4
20260504041335 20 8 1.6 4.8 0.00 0.03 0.00 94 1014.4
20260504040348 20 18 0.0 3.2 0.00 0.03 0.00 95 1014.7
20260504035341 20 23 1.6 4.8 0.00 0.03 0.03 94 1014.8
20260504034348 20 23 1.6 3.2 0.00 0.03 0.03 95 1014.9
20260504033329 20 27 1.6 4.8 0.00 0.03 0.03 96 1014.9
20260504032342 20 48 0.0 0.0 0.00 0.03 0.03 96 1015.0
20260504031329 20 48 0.0 1.6 0.00 0.03 0.03 96 1014.8
20260504030344 20 48 0.0 1.6 0.00 0.03 0.03 96 1014.9
20260504025352 20 48 0.0 1.6 0.00 0.05 0.03 96 1014.9
20260504024336 20 47 0.0 0.0 0.00 0.05 0.03 96 1014.9
20260504023351 20 47 0.0 0.0 0.00 0.05 0.03 96 1014.9
20260504022358 20 48 0.0 0.0 0.00 0.05 0.03 95 1014.9
20260504021331 20 48 0.0 0.0 0.00 0.05 0.03 95 1014.8
20260504020344 20 48 0.0 0.0 0.00 0.05 0.03 94 1014.6
20260504015328 21 48 0.0 0.0 0.00 0.05 0.03 93 1014.5
20260504014339 21 48 0.0 0.0 0.00 0.05 0.03 92 1014.4
20260504013353 21 47 0.0 1.6 0.00 0.05 0.03 92 1014.4
20260504012337 21 47 0.0 1.6 0.00 0.05 0.03 92 1014.3
20260504011347 21 47 0.0 0.0 0.00 0.05 0.03 91 1014.2
20260504010331 21 47 0.0 1.6 0.00 0.05 0.03 91 1014.1
20260504005344 21 47 0.0 3.2 0.00 0.10 0.03 91 1013.9
20260504004357 21 64 0.0 3.2 0.00 0.10 0.03 91 1013.8
20260504003329 21 105 0.0 1.6 0.00 0.10 0.03 91 1013.8
20260504002339 21 105 0.0 1.6 0.00 0.10 0.03 90 1013.6
20260504001352 22 106 0.0 1.6 0.00 0.10 0.03 90 1013.5
20260504000335 22 88 0.0 1.6 0.00 0.10 0.03 90 1013.5
20260503235349 22 93 0.0 1.6 0.00 0.10 0.03 89 1013.5
20260503234332 22 103 0.0 1.6 0.00 0.10 0.03 88 1013.5
20260503233347 22 98 0.0 3.2 0.00 0.10 0.03 87 1013.5
20260503232330 22 100 1.6 6.4 0.00 0.10 0.03 87 1013.4
20260503231326 22 104 0.0 1.6 0.00 0.10 0.03 86 1013.3
20260503230355 22 96 0.0 8.0 0.00 0.10 0.03 86 1013.3
20260503225329 22 98 0.0 9.7 0.00 0.99 0.03 86 1013.2
20260503224342 22 25 4.8 9.7 0.00 0.99 0.03 86 1013.3
20260503223334 22 30 4.8 8.0 0.00 0.99 0.03 86 1013.2
20260503222348 22 62 4.8 12.9 0.00 0.99 0.03 86 1013.2
20260503221332 23 23 6.4 9.7 0.00 0.99 0.03 86 1013.2
20260503220342 23 70 1.6 17.7 0.00 0.99 0.03 86 1013.2
20260503215335 23 41 4.8 11.3 0.00 1.78 0.03 86 1013.3
20260503214408 23 102 4.8 9.7 0.00 1.78 0.03 86 1013.3
20260503213332 22 44 3.2 9.7 0.00 1.78 0.03 86 1013.4
20260503212343 23 77 4.8 9.7 0.00 1.78 0.03 86 1013.4
20260503211338 23 17 6.4 12.9 0.00 1.78 0.03 85 1013.4
20260503210349 23 20 3.2 11.3 0.00 1.78 0.03 86 1013.5
20260503205340 23 44 8.0 12.9 0.00 1.78 0.03 85 1013.6